• In Hungary
  • List of Countries
  • For 7 days
  • Water Temperature
  • Satellite Maps
  • Weather Map
  • News
  • Weather Widgets
  • user-avatar
    Login

    Hourly Weather Podgrodzie

    Today, 25 September, Tuesday

    Time Temperature Precipitation Wind Pressure Humidity
    00:00 +4°C° 0 mm 4 mps 743 mmHg 80%
    01:00 +4°C° 0 mm 3 mps 743 mmHg 81%
    02:00 +4°C° 0 mm 3 mps 743 mmHg 83%
    03:00 +4°C° 0 mm 3 mps 744 mmHg 84%
    04:00 +4°C° 0 mm 3 mps 744 mmHg 86%
    05:00 +4°C° 0.1 mm 4 mps 745 mmHg 85%
    06:00 +4°C° 0.1 mm 4 mps 745 mmHg 84%
    07:00 +4°C° 0.1 mm 4 mps 746 mmHg 83%
    08:00 +5°C° 0 mm 4 mps 746 mmHg 78%
    09:00 +6°C° 0 mm 4 mps 747 mmHg 73%
    10:00 +7°C° 0 mm 4 mps 747 mmHg 68%
    11:00 +8°C° 0.1 mm 4 mps 747 mmHg 64%
    12:00 +10°C° 0.1 mm 4 mps 747 mmHg 60%
    13:00 +11°C° 0.1 mm 4 mps 748 mmHg 57%
    14:00 +11°C° 0.1 mm 4 mps 748 mmHg 57%
    15:00 +10°C° 0.1 mm 4 mps 748 mmHg 57%
    16:00 +10°C° 0.1 mm 4 mps 748 mmHg 57%
    17:00 +9°C° 0 mm 3 mps 748 mmHg 62%
    18:00 +8°C° 0 mm 2 mps 749 mmHg 67%
    19:00 +6°C° 0 mm 2 mps 749 mmHg 72%
    20:00 +7°C° 0 mm 1 mps 749 mmHg 74%
    21:00 +6°C° 0 mm 1 mps 750 mmHg 76%
    22:00 +6°C° 0 mm 1 mps 750 mmHg 77%
    23:00 +6°C° 0 mm 1 mps 751 mmHg 79%

    Tomorrow, 26 September, Wednesday

    Time Temperature Precipitation Wind Pressure Humidity
    00:00 +5°C° 0 mm 1 mps 751 mmHg 80%
    01:00 +5°C° 0 mm 1 mps 751 mmHg 82%
    02:00 +5°C° 0 mm 1 mps 751 mmHg 83%
    03:00 +4°C° 0 mm 1 mps 751 mmHg 84%
    04:00 +4°C° 0 mm 1 mps 751 mmHg 85%
    05:00 +5°C° 0 mm 1 mps 751 mmHg 82%
    06:00 +6°C° 0 mm 1 mps 751 mmHg 79%
    07:00 +6°C° 0 mm 1 mps 751 mmHg 77%
    08:00 +8°C° 0 mm 2 mps 751 mmHg 68%
    09:00 +10°C° 0 mm 2 mps 751 mmHg 60%
    10:00 +13°C° 0 mm 2 mps 751 mmHg 51%
    11:00 +14°C° 0 mm 2 mps 751 mmHg 47%
    12:00 +13°C° 0 mm 3 mps 750 mmHg 44%
    13:00 +14°C° 0 mm 3 mps 749 mmHg 40%
    14:00 +14°C° 0 mm 3 mps 749 mmHg 43%
    15:00 +14°C° 0 mm 3 mps 748 mmHg 45%
    16:00 +14°C° 0 mm 3 mps 748 mmHg 48%
    17:00 +12°C° 0 mm 3 mps 748 mmHg 53%
    18:00 +11°C° 0 mm 3 mps 748 mmHg 57%
    19:00 +9°C° 0 mm 3 mps 748 mmHg 62%
    20:00 +9°C° 0 mm 3 mps 748 mmHg 62%
    21:00 +9°C° 0 mm 3 mps 748 mmHg 62%
    22:00 +9°C° 0 mm 3 mps 748 mmHg 63%
    23:00 +8°C° 0 mm 3 mps 747 mmHg 63%

    Day after tomorrow, 27 September, Thursday

    Time Temperature Precipitation Wind Pressure Humidity
    00:00 +8°C° 0 mm 3 mps 747 mmHg 62%
    01:00 +8°C° 0 mm 3 mps 747 mmHg 62%
    02:00 +8°C° 0 mm 3 mps 747 mmHg 61%
    03:00 +7°C° 0 mm 3 mps 746 mmHg 59%
    04:00 +7°C° 0 mm 3 mps 746 mmHg 57%
    05:00 +8°C° 0 mm 3 mps 746 mmHg 56%
    06:00 +9°C° 0 mm 3 mps 746 mmHg 54%
    07:00 +9°C° 0 mm 3 mps 746 mmHg 53%
    08:00 +12°C° 0 mm 3 mps 746 mmHg 48%
    09:00 +14°C° 0 mm 3 mps 746 mmHg 44%
    10:00 +18°C° 0 mm 3 mps 746 mmHg 39%
    11:00 +19°C° 0 mm 3 mps 746 mmHg 40%
    12:00 +20°C° 0 mm 3 mps 745 mmHg 40%
    13:00 +21°C° 0 mm 3 mps 745 mmHg 41%
    14:00 +21°C° 0 mm 3 mps 745 mmHg 44%
    15:00 +21°C° 0 mm 2 mps 744 mmHg 48%
    16:00 +20°C° 0 mm 2 mps 744 mmHg 51%
    17:00 +18°C° 0 mm 2 mps 744 mmHg 56%
    18:00 +16°C° 0 mm 2 mps 744 mmHg 61%
    19:00 +15°C° 0 mm 1 mps 744 mmHg 65%
    20:00 +14°C° 0 mm 2 mps 743 mmHg 66%
    21:00 +14°C° 0 mm 2 mps 743 mmHg 66%
    22:00 +13°C° 0 mm 2 mps 743 mmHg 67%
    23:00 +13°C° 0 mm 2 mps 743 mmHg 68%

    28 September, Friday

    Time Temperature Precipitation Wind Pressure Humidity
    00:00 +13°C° 0 mm 2 mps 742 mmHg 68%
    01:00 +13°C° 0 mm 2 mps 742 mmHg 69%
    02:00 +12°C° 0 mm 2 mps 741 mmHg 70%
    03:00 +12°C° 0 mm 2 mps 741 mmHg 71%
    04:00 +12°C° 0 mm 2 mps 740 mmHg 71%
    05:00 +12°C° 0 mm 2 mps 740 mmHg 69%
    06:00 +13°C° 0 mm 2 mps 740 mmHg 68%
    07:00 +12°C° 0 mm 3 mps 740 mmHg 66%
    08:00 +16°C° 0 mm 3 mps 740 mmHg 57%
    09:00 +18°C° 0 mm 4 mps 740 mmHg 49%
    10:00 +20°C° 0 mm 4 mps 740 mmHg 40%
    11:00 +21°C° 0 mm 4 mps 739 mmHg 38%
    12:00 +21°C° 0 mm 4 mps 739 mmHg 37%
    13:00 +22°C° 0 mm 4 mps 738 mmHg 35%
    14:00 +21°C° 0 mm 3 mps 738 mmHg 39%
    15:00 +21°C° 0 mm 3 mps 738 mmHg 42%
    16:00 +20°C° 0 mm 2 mps 737 mmHg 46%
    17:00 +18°C° 0 mm 2 mps 737 mmHg 52%
    18:00 +16°C° 0 mm 2 mps 738 mmHg 59%
    19:00 +14°C° 0 mm 2 mps 738 mmHg 65%
    20:00 +13°C° 0 mm 2 mps 738 mmHg 70%
    21:00 +13°C° 0 mm 1 mps 738 mmHg 75%
    22:00 +12°C° 0 mm 1 mps 738 mmHg 80%
    23:00 +12°C° 0 mm 1 mps 739 mmHg 82%

    29 September, Saturday

    Time Temperature Precipitation Wind Pressure Humidity
    00:00 +11°C° 0 mm 1 mps 739 mmHg 84%
    01:00 +11°C° 0 mm 1 mps 739 mmHg 86%
    02:00 +11°C° 0 mm 1 mps 739 mmHg 85%
    03:00 +11°C° 0 mm 1 mps 739 mmHg 84%
    04:00 +10°C° 0 mm 2 mps 739 mmHg 84%
    05:00 +10°C° 0 mm 2 mps 739 mmHg 81%
    06:00 +10°C° 0 mm 2 mps 740 mmHg 79%
    07:00 +10°C° 0 mm 2 mps 740 mmHg 76%
    08:00 +11°C° 0 mm 3 mps 741 mmHg 70%
    09:00 +12°C° 0 mm 3 mps 741 mmHg 64%
    10:00 +13°C° 0 mm 4 mps 741 mmHg 57%
    11:00 +13°C° 0 mm 4 mps 741 mmHg 55%
    12:00 +13°C° 0 mm 4 mps 741 mmHg 54%
    13:00 +13°C° 0 mm 3 mps 741 mmHg 52%
    14:00 +13°C° 0 mm 3 mps 741 mmHg 51%
    15:00 +13°C° 0 mm 3 mps 741 mmHg 51%
    16:00 +13°C° 0 mm 3 mps 742 mmHg 51%
    17:00 +11°C° 0 mm 3 mps 742 mmHg 55%
    18:00 +10°C° 0 mm 2 mps 742 mmHg 59%
    19:00 +9°C° 0 mm 2 mps 743 mmHg 63%
    20:00 +8°C° 0 mm 2 mps 743 mmHg 65%
    21:00 +7°C° 0 mm 2 mps 743 mmHg 68%
    22:00 +7°C° 0 mm 2 mps 743 mmHg 70%
    23:00 +6°C° 0 mm 2 mps 743 mmHg 72%

    30 September, Sunday

    Time Temperature Precipitation Wind Pressure Humidity
    00:00 +6°C° 0 mm 2 mps 743 mmHg 73%
    01:00 +5°C° 0 mm 2 mps 743 mmHg 75%
    02:00 +5°C° 0 mm 2 mps 743 mmHg 77%
    03:00 +5°C° 0 mm 2 mps 742 mmHg 79%
    04:00 +5°C° 0 mm 1 mps 742 mmHg 81%
    05:00 +5°C° 0 mm 2 mps 742 mmHg 80%
    06:00 +5°C° 0 mm 2 mps 742 mmHg 79%
    07:00 +6°C° 0 mm 2 mps 742 mmHg 78%
    08:00 +8°C° 0 mm 2 mps 742 mmHg 69%
    09:00 +10°C° 0 mm 2 mps 742 mmHg 61%
    10:00 +14°C° 0 mm 2 mps 742 mmHg 52%
    11:00 +15°C° 0 mm 2 mps 741 mmHg 49%
    12:00 +16°C° 0 mm 2 mps 741 mmHg 46%
    13:00 +16°C° 0 mm 2 mps 740 mmHg 43%
    14:00 +16°C° 0 mm 2 mps 740 mmHg 45%
    15:00 +16°C° 0 mm 1 mps 740 mmHg 47%
    16:00 +16°C° 0 mm 1 mps 739 mmHg 49%
    17:00 +14°C° 0 mm 1 mps 739 mmHg 56%
    18:00 +12°C° 0 mm 1 mps 739 mmHg 64%
    19:00 +9°C° 0 mm 0 mps 739 mmHg 71%
    20:00 +9°C° 0 mm 1 mps 739 mmHg 72%
    21:00 +9°C° 0 mm 1 mps 739 mmHg 74%
    22:00 +9°C° 0 mm 1 mps 739 mmHg 75%
    23:00 +8°C° 0 mm 1 mps 739 mmHg 75%
    Show more